[[{"header":{"parameterUnit":"m.s-1","parameterCategory":1,"la1":30.2992,"la2":30.254,"lo1":-89.0895,"lo2":-89.0443,"dy":0.0025,"dx":0.0025,"nx":19,"ny":19,"refTime":"2026-03-12T03:00:00:Z","depth":0,"parameterNumber":2,"parameterNumberName":"U-component_of_WINDS"},"data":[0,0,0,-2.3378,-2.3381,-2.3502,-2.3503,-2.3669,-2.367,0,0,0,0,0,0,0,0,0,0,0,-2.3349,-2.335,-2.3378,-2.3381,-2.3502,-2.3503,-2.3668,-2.367,0,0,0,0,0,0,0,0,0,0,0,-2.3348,-2.335,-2.3352,-2.3382,-2.3502,-2.3503,-2.3668,-2.3573,0,0,0,0,0,0,0,0,0,0,-2.3453,-2.3433,-2.335,-2.3352,-2.3382,-2.3502,-2.3503,-2.3568,-2.3579,-2.3618,0,-2.3655,0,-2.3665,-2.3682,-2.3683,0,0,0,-2.3377,-2.3424,-2.345,-2.3352,-2.3384,-2.3502,-2.3446,-2.3574,-2.3586,-2.3633,-2.3658,-2.3663,-2.3668,-2.3683,-2.3684,-2.3928,-2.3929,0,0,-2.337,-2.3375,-2.3442,-2.3458,-2.344,-2.3443,-2.345,-2.3581,-2.3609,-2.3658,-2.3667,-2.3671,-2.3684,-2.3686,-2.3927,-2.3928,0,0,0,-2.3354,-2.337,-2.3393,-2.3452,-2.3473,-2.3446,-2.3455,-2.3603,-2.361,-2.3669,-2.3673,-2.3685,-2.3687,-2.3925,-2.3927,-2.3999,0,0,0,-2.3349,-2.3361,-2.339,-2.3395,-2.3471,-2.3539,-2.3474,-2.3601,-2.3615,-2.3672,-2.3685,-2.3689,-2.3924,-2.3926,-2.3994,-2.4033,0,0,0,-2.3339,-2.3359,-2.3379,-2.3395,-2.3447,-2.3537,-2.3552,-2.3604,-2.3618,-2.3683,-2.369,-2.3923,-2.3926,-2.3989,-2.4026,-2.4099,0,0,0,-2.3329,-2.3442,-2.338,-2.3508,-2.3446,-2.358,-2.3551,-2.3651,-2.3715,-2.3686,-2.3924,-2.3927,-2.3988,-2.4021,-2.4094,-2.4162,-2.4191,0,0,-2.3474,-2.346,-2.3534,-2.3483,-2.3629,-2.3562,-2.3719,-2.3773,-2.3775,-2.3877,-2.3883,-2.3996,-2.4025,-2.4098,-2.4348,-2.4371,0,0,0,-2.3582,-2.3636,-2.3674,-2.3734,-2.3778,-2.3818,-2.3848,-2.3867,-2.3953,-2.3828,-2.4041,-2.4059,-2.4101,-2.4134,-2.4153,-2.419,-2.3942,-2.3941,-2.3941,-2.3796,-2.3791,-2.3915,-2.3925,-2.3984,-2.4012,-2.4059,-2.4091,-2.407,-2.412,-2.4151,-2.4303,-2.4341,-2.4355,-2.4393,-2.4185,-2.4185,-2.4186,-2.4186,-2.401,-2.4085,-2.4053,-2.4161,-2.4155,-2.4245,-2.4276,-2.4258,-2.4342,-2.4279,-2.4317,-2.425,-2.4381,-2.4413,-2.4191,-2.419,-2.419,-2.4189,-2.4189,-2.415,-2.4186,-2.4207,-2.4293,-2.436,-2.4366,-2.4447,-2.4439,-2.4431,-2.4468,-2.45,-2.4498,-2.4497,-2.4483,-2.4484,-2.4484,-2.4485,-2.4485,-2.4486,-2.4289,-2.431,-2.438,-2.4434,-2.4471,-2.4519,-2.4547,-2.4583,-2.4622,-2.4609,-2.4609,-2.4583,-2.4394,-2.4347,-2.4494,-2.4492,-2.4491,-2.4491,-2.449,-2.4509,-2.4457,-2.4565,-2.4602,-2.4664,-2.4731,-2.4718,-2.4793,-2.4822,-2.4862,-2.4827,-2.4688,-2.4673,-2.4657,-2.4619,-2.4827,-2.4827,-2.4827,-2.4827,-2.4629,-2.4619,-2.4727,-2.4787,-2.4844,-2.4843,-2.4964,-2.4986,-2.5001,-2.5019,-2.4987,-2.4934,-2.4919,-2.4913,-2.4892,-2.4856,-2.512,-2.512,-2.512,-2.4764,-2.476,-2.4865,-2.4878,-2.4926,-2.4967,-2.5081,-2.515,-2.5156,-2.5132,-2.5032,-2.502,-2.4935,-2.4907,-2.4883,-2.485,-2.4783,0,0]},{"header":{"parameterUnit":"m.s-1","parameterCategory":1,"la1":30.2992,"la2":30.254,"lo1":-89.0895,"lo2":-89.0443,"dy":0.0025,"dx":0.0025,"nx":19,"ny":19,"refTime":"2026-03-12T03:00:00:Z","depth":0,"parameterNumber":3,"parameterNumberName":"V-component_of_WINDS"},"data":[0,0,0,-6.7363,-6.7368,-6.758,-6.758,-6.7863,-6.7865,0,0,0,0,0,0,0,0,0,0,0,-6.7311,-6.7313,-6.7363,-6.7369,-6.7579,-6.758,-6.7862,-6.7865,0,0,0,0,0,0,0,0,0,0,0,-6.731,-6.7313,-6.7316,-6.7369,-6.7579,-6.758,-6.7861,-6.7697,0,0,0,0,0,0,0,0,0,0,-6.749,-6.7452,-6.7312,-6.7316,-6.7371,-6.7579,-6.758,-6.7689,-6.7707,-6.7773,0,-6.7836,0,-6.7856,-6.7885,-6.7886,0,0,0,-6.736,-6.7437,-6.7485,-6.7316,-6.7373,-6.7579,-6.7482,-6.7699,-6.772,-6.7797,-6.784,-6.785,-6.786,-6.7887,-6.7888,-6.83,-6.8302,0,0,-6.7349,-6.7354,-6.747,-6.7499,-6.747,-6.7475,-6.7489,-6.7711,-6.7758,-6.7841,-6.7857,-6.7865,-6.7889,-6.7891,-6.8298,-6.8301,0,0,0,-6.7321,-6.7346,-6.7388,-6.7488,-6.7525,-6.7482,-6.7497,-6.7748,-6.7761,-6.786,-6.7868,-6.7891,-6.7894,-6.8296,-6.8299,-6.842,0,0,0,-6.7313,-6.733,-6.7384,-6.7389,-6.7521,-6.764,-6.7529,-6.7746,-6.7771,-6.7867,-6.7891,-6.7897,-6.8293,-6.8297,-6.8411,-6.8476,0,0,0,-6.7294,-6.7327,-6.7362,-6.7389,-6.748,-6.7636,-6.7662,-6.7751,-6.7776,-6.7886,-6.7898,-6.8291,-6.8297,-6.8403,-6.8463,-6.8586,0,0,0,-6.7274,-6.7465,-6.7364,-6.7581,-6.7479,-6.771,-6.766,-6.7832,-6.794,-6.7892,-6.8293,-6.8299,-6.8401,-6.8455,-6.8578,-6.8691,-6.8739,0,0,-6.7518,-6.7495,-6.7622,-6.7537,-6.7788,-6.7677,-6.7944,-6.8038,-6.8042,-6.8213,-6.8223,-6.8414,-6.8462,-6.8584,-6.9004,-6.9042,0,0,0,-6.7701,-6.7793,-6.7858,-6.7963,-6.804,-6.811,-6.8162,-6.8197,-6.8342,-6.8132,-6.8491,-6.852,-6.8591,-6.8645,-6.8677,-6.8738,-6.8324,-6.8323,-6.8323,-6.8055,-6.8052,-6.8261,-6.8283,-6.8385,-6.8437,-6.8518,-6.8572,-6.8538,-6.8623,-6.8674,-6.8929,-6.8993,-6.9017,-6.908,-6.8733,-6.8733,-6.8734,-6.8734,-6.8413,-6.8542,-6.8492,-6.8678,-6.8672,-6.8826,-6.8882,-6.8853,-6.8994,-6.8891,-6.8953,-6.8841,-6.9059,-6.9114,-6.8743,-6.8742,-6.8741,-6.874,-6.8739,-6.8645,-6.8706,-6.8745,-6.8896,-6.9012,-6.9026,-6.9165,-6.9154,-6.9144,-6.9206,-6.9258,-6.9256,-6.9253,-6.9231,-6.9232,-6.9233,-6.9234,-6.9235,-6.9235,-6.887,-6.8911,-6.9031,-6.9128,-6.9194,-6.9278,-6.933,-6.9394,-6.946,-6.9441,-6.9441,-6.9398,-6.9081,-6.9002,-6.9249,-6.9247,-6.9245,-6.9244,-6.9243,-6.9235,-6.9151,-6.9336,-6.9402,-6.9515,-6.963,-6.9614,-6.9743,-6.9793,-6.9862,-6.9805,-6.9573,-6.9547,-6.9521,-6.9456,-6.9805,-6.9805,-6.9805,-6.9805,-6.9432,-6.9418,-6.9604,-6.971,-6.9812,-6.9816,-7.0023,-7.0064,-7.0094,-7.0124,-7.0072,-6.9983,-6.9957,-6.9947,-6.9912,-6.9851,-7.0293,-7.0294,-7.0294,-6.9656,-6.9651,-6.9831,-6.9861,-6.9948,-7.0022,-7.0216,-7.0337,-7.0352,-7.0314,-7.0148,-7.0127,-6.9984,-6.9938,-6.9897,-6.9843,-6.973,0,0]}]]